Regional Weather Roundup
Issued by NWS

Home | Current Version | Previous Version | Graphics & Text | Print | Product List | Glossary On
Versions: 1 2 3 4 5 6 7 8 9 10 11 12 13 14 15 16 17 18 19 20 21 22 23 24 25 26 27 28 29 30 31 32 33 34 35 36 37 38 39 40 41 42 43 44 45 46 47 48 49 50
000
ASUS43 KFSD 031610
RWRSD

WEATHER ROUNDUP FOR SOUTH DAKOTA
NATIONAL WEATHER SERVICE SIOUX FALLS SD
1100 AM CDT FRI JUL 03 2015

NOTE: "FAIR" INDICATES FEW OR NO CLOUDS BELOW 12,000 FEET WITH NO
SIGNIFICANT WEATHER AND/OR OBSTRUCTIONS TO VISIBILITY.


SDZ001>005-009-010-012>017-031700-
NORTHWEST AND NORTH CENTRAL SOUTH DAKOTA

CITY           SKY/WX    TMP DP  RH WIND       PRES   REMARKS
BUFFALO          N/A     76  59  55 SE6       30.00F
FAITH            N/A     76  59  55 CALM      30.04F
MOBRIDGE       MOSUNNY   76  65  68 NW5       29.98F HAZE
$$

SDZ012>016-024>037-041>051-057-063-072>074-031700-
SOUTHWEST AND SOUTH CENTRAL SOUTH DAKOTA

CITY           SKY/WX    TMP DP  RH WIND       PRES   REMARKS
RAPID CTY ARPT SUNNY     74  61  63 VRB5      30.08F
PIERRE         SUNNY     74  67  78 CALM      30.00F HAZE
CUSTER         MOSUNNY   69  51  52 E3        30.19F
ELLSWORTH AFB  SUNNY     74  61  63 S7        30.07F
PHILIP         SUNNY     76  62  62 E5        30.04F HAZE
PINE RIDGE     SUNNY     73  58  59 CALM      30.09F
SPEARFISH      FAIR      73  63  68 NE6       30.11F
WINNER         FAIR      77  61  57 NE7       30.03F
$$

SDZ004>011-016>023-039-040-031700-
NORTHEAST SOUTH DAKOTA

CITY           SKY/WX    TMP DP  RH WIND       PRES   REMARKS
ABERDEEN       MOSUNNY   74  64  71 CALM      29.98S HAZE
WATERTOWN      MOSUNNY   72  65  78 W7        29.99S
BROOKINGS      CLOUDY    66  61  82 S5        30.02F
SISSETON         N/A     77  66  68 NW5       29.94F
$$

SDZ017-020-022-023-036>040-048>070-031700-
SOUTHEAST SOUTH DAKOTA

CITY           SKY/WX    TMP DP  RH WIND       PRES   REMARKS
SIOUX FALLS    SUNNY     69  61  75 VRB5      30.01F
HURON          MOSUNNY   70  65  84 VRB3      29.98F
CHAMBERLAIN    PTSUNNY   68  67  95 CALM      30.02S
MITCHELL       CLOUDY    66  64  93 S5        30.01F FOG
YANKTON        CLOUDY    70  61  73 CALM      30.02S
$$

ABBREVIATIONS USED IN REMARKS
   TC - TEMPERATURE IN CELSIUS
  WCI - WIND CHILL INDEX
   HX - HEAT INDEX
  VSB - VISIBILITY




USA.gov is the U.S. government's official web portal to all federal, state and local government web resources and services.